This demonstration page uses our WeatherBlox Daily Observations layout. Learn more.

Left ArrowRight Arrow

Hourly Observations for October 26, 2021

Temp ( °F °C ) Dew Point ( °F °C ) Humidity (%) Winds ( mph kmh ) Pressure ( in mb ) Visibility ( mi km ) Precip ( " mm )
12:51 am 00:51 Clear 63 17.2 40 4.4 43 43 NE 8 13 29.73 1007 10 16 N/A
1:51 am 01:51 Clear 68 20 45 7.2 44 44 NW 16 26 29.69 1005 10 16 N/A
2:51 am 02:51 Clear 68 20 49 9.4 51 51 NNW 13 20 29.71 1006 10 16 N/A
3:51 am 03:51 Clear 64 17.8 48 8.9 56 56 NW 9 15 29.74 1007 10 16 N/A
4:51 am 04:51 Clear 63 17.2 47 8.3 56 56 N 9 15 29.72 1006 10 16 N/A
5:51 am 05:51 Clear 61 16.1 48 8.9 63 63 WNW 7 11 29.73 1007 10 16 N/A
6:51 am 06:51 Partly Cloudy 61 16.1 49 9.4 65 65 WNW 8 13 29.74 1007 10 16 N/A
7:51 am 07:51 Mostly Cloudy 63 17.2 52 11.1 68 68 NW 20 31 29.77 1008 10 16 N/A
8:51 am 08:51 Mostly Cloudy 60 15.6 52 11.1 75 75 NW 24 39 29.81 1010 10 16 N/A
9:51 am 09:51 Mostly Sunny 64 17.8 49 9.4 58 58 NW 23 37 29.80 1009 10 16 0.00 0.00
10:51 am 10:51 Sunny 66 18.9 47 8.3 50 50 NW 24 39 29.80 1009 10 16 N/A
11:51 am 11:51 Sunny 69 20.6 39 3.9 33 33 NW 28 44 29.78 1009 10 16 N/A
12:51 pm 12:51 Sunny 69 20.6 31 -0.6 24 24 WNW 28 44 29.78 1008 10 16 N/A
1:51 pm 13:51 Sunny 69 20.6 28 -2.2 22 22 WNW 29 46 29.77 1008 10 16 N/A
2:51 pm 14:51 Sunny 68 20 25 -3.9 20 20 W 24 39 29.80 1009 10 16 N/A
3:51 pm 15:51 Sunny 67 19.4 26 -3.3 21 21 WNW 26 43 29.81 1010 10 16 N/A
4:51 pm 16:51 Sunny 65 18.3 26 -3.3 23 23 W 24 39 29.83 1010 10 16 N/A
5:51 pm 17:51 Clear 61 16.1 27 -2.8 27 27 WNW 17 28 29.87 1012 10 16 N/A
6:51 pm 18:51 Clear 58 14.4 28 -2.2 32 32 WNW 8 13 29.90 1013 10 16 N/A
7:51 pm 19:51 Clear 55 12.8 29 -1.7 37 37 NW 8 13 29.92 1013 10 16 N/A
8:51 pm 20:51 Clear 55 12.8 31 -0.6 40 40 NNW 9 15 29.94 1014 10 16 N/A
9:51 pm 21:51 Clear 55 12.8 31 -0.6 40 40 N 8 13 29.96 1014 10 16 N/A
10:51 pm 22:51 Clear 54 12.2 31 -0.6 42 42 N 9 15 29.96 1015 10 16 N/A
11:51 pm 23:51 Clear 54 12.2 32 undefined 43 43 NNW 12 19 29.96 1015 10 16 N/A

Powered by AerisWeather